When you browse on this site, cookies collect data to enhance your experience and personalize the content and advertising you see.
Visit our Privacy Policy to learn more. By continuing to use the site, you agree to this use of cookies and data.
  • Em Portugal
  • Lista de países
  • Para 7 dias
  • Temperatura da água
  • Mapas de satélite
  • Mapa do tempo
  • Widgets de tempo
  • user-avatar
    Iniciar Sessão

    Previsão horária em Costa Dourada

    Hoje, 21 Maio, Terça-feira

    Tempo Temperatura Precipitação Vento Pressão Humidade
    00:00 +18°C° 0.1 mm 2 m/s 765 mmHg 93%
    01:00 +19°C° 0.1 mm 1 m/s 765 mmHg 93%
    02:00 +19°C° 0.2 mm 1 m/s 765 mmHg 93%
    03:00 +19°C° 0.2 mm 1 m/s 765 mmHg 94%
    04:00 +19°C° 0 mm 1 m/s 765 mmHg 94%
    05:00 +19°C° 0.3 mm 1 m/s 765 mmHg 94%
    06:00 +19°C° 0.3 mm 1 m/s 765 mmHg 93%
    07:00 +18°C° 0.3 mm 2 m/s 765 mmHg 93%
    08:00 +19°C° 0.2 mm 2 m/s 766 mmHg 90%
    09:00 +20°C° 0.2 mm 2 m/s 766 mmHg 87%
    10:00 +21°C° 0 mm 2 m/s 766 mmHg 81%
    11:00 +23°C° 0.1 mm 2 m/s 765 mmHg 77%
    12:00 +23°C° 0.1 mm 2 m/s 765 mmHg 73%
    13:00 +24°C° 0.1 mm 2 m/s 765 mmHg 70%
    14:00 +24°C° 0 mm 2 m/s 764 mmHg 69%
    15:00 +24°C° 0 mm 2 m/s 764 mmHg 68%
    16:00 +23°C° 0 mm 2 m/s 764 mmHg 65%
    17:00 +21°C° 0 mm 2 m/s 764 mmHg 70%
    18:00 +20°C° 0 mm 2 m/s 765 mmHg 74%
    19:00 +18°C° 0 mm 2 m/s 765 mmHg 79%
    20:00 +18°C° 0 mm 2 m/s 765 mmHg 80%
    21:00 +18°C° 0 mm 2 m/s 765 mmHg 81%
    22:00 +18°C° 0 mm 1 m/s 766 mmHg 83%
    23:00 +18°C° 0 mm 1 m/s 766 mmHg 84%

    Amanhã, 22 Maio, Quarta-feira

    Tempo Temperatura Precipitação Vento Pressão Humidade
    00:00 +18°C° 0 mm 1 m/s 766 mmHg 84%
    01:00 +18°C° 0 mm 1 m/s 766 mmHg 85%
    02:00 +17°C° 0 mm 2 m/s 766 mmHg 86%
    03:00 +17°C° 0 mm 2 m/s 766 mmHg 86%
    04:00 +17°C° 0 mm 2 m/s 765 mmHg 87%
    05:00 +17°C° 0 mm 2 m/s 766 mmHg 86%
    06:00 +17°C° 0 mm 2 m/s 766 mmHg 86%
    07:00 +17°C° 0 mm 2 m/s 766 mmHg 86%
    08:00 +19°C° 0 mm 2 m/s 766 mmHg 77%
    09:00 +21°C° 0 mm 2 m/s 766 mmHg 68%
    10:00 +24°C° 0 mm 3 m/s 766 mmHg 60%
    11:00 +25°C° 0 mm 3 m/s 766 mmHg 57%
    12:00 +25°C° 0 mm 3 m/s 765 mmHg 55%
    13:00 +26°C° 0 mm 3 m/s 765 mmHg 53%
    14:00 +25°C° 0 mm 3 m/s 765 mmHg 57%
    15:00 +23°C° 0 mm 4 m/s 765 mmHg 62%
    16:00 +22°C° 0 mm 4 m/s 765 mmHg 67%
    17:00 +21°C° 0 mm 3 m/s 765 mmHg 72%
    18:00 +20°C° 0 mm 3 m/s 765 mmHg 77%
    19:00 +19°C° 0 mm 3 m/s 765 mmHg 82%
    20:00 +18°C° 0 mm 3 m/s 766 mmHg 82%
    21:00 +18°C° 0 mm 3 m/s 766 mmHg 82%
    22:00 +18°C° 0 mm 3 m/s 766 mmHg 83%
    23:00 +17°C° 0 mm 3 m/s 766 mmHg 83%

    Depois de amanhã, 23 Maio, Quinta-feira

    Tempo Temperatura Precipitação Vento Pressão Humidade
    00:00 +17°C° 0 mm 2 m/s 766 mmHg 84%
    01:00 +17°C° 0 mm 2 m/s 766 mmHg 84%
    02:00 +17°C° 0 mm 2 m/s 765 mmHg 86%
    03:00 +16°C° 0 mm 3 m/s 765 mmHg 87%
    04:00 +16°C° 0 mm 3 m/s 765 mmHg 88%
    05:00 +16°C° 0 mm 3 m/s 765 mmHg 88%
    06:00 +16°C° 0 mm 3 m/s 765 mmHg 89%
    07:00 +16°C° 0 mm 3 m/s 766 mmHg 89%
    08:00 +18°C° 0 mm 3 m/s 766 mmHg 80%
    09:00 +20°C° 0 mm 4 m/s 766 mmHg 71%
    10:00 +22°C° 0 mm 4 m/s 766 mmHg 61%
    11:00 +23°C° 0.1 mm 4 m/s 765 mmHg 61%
    12:00 +23°C° 0.1 mm 4 m/s 765 mmHg 60%
    13:00 +23°C° 0.1 mm 4 m/s 764 mmHg 59%
    14:00 +23°C° 0.2 mm 4 m/s 764 mmHg 64%
    15:00 +22°C° 0.2 mm 4 m/s 764 mmHg 69%
    16:00 +21°C° 0.2 mm 3 m/s 764 mmHg 73%
    17:00 +20°C° 0 mm 3 m/s 764 mmHg 75%
    18:00 +19°C° 0 mm 3 m/s 764 mmHg 78%
    19:00 +18°C° 0 mm 3 m/s 765 mmHg 80%
    20:00 +18°C° 0 mm 3 m/s 765 mmHg 80%
    21:00 +18°C° 0 mm 3 m/s 765 mmHg 80%
    22:00 +17°C° 0 mm 2 m/s 765 mmHg 80%
    23:00 +17°C° 0 mm 2 m/s 765 mmHg 82%

    24 Maio, Sexta-feira

    Tempo Temperatura Precipitação Vento Pressão Humidade
    00:00 +17°C° 0 mm 2 m/s 764 mmHg 83%
    01:00 +16°C° 0 mm 2 m/s 764 mmHg 84%
    02:00 +16°C° 0 mm 3 m/s 764 mmHg 85%
    03:00 +16°C° 0 mm 3 m/s 763 mmHg 86%
    04:00 +14°C° 0 mm 3 m/s 763 mmHg 88%
    05:00 +14°C° 0 mm 3 m/s 763 mmHg 87%
    06:00 +14°C° 0 mm 3 m/s 764 mmHg 87%
    07:00 +14°C° 0 mm 3 m/s 764 mmHg 87%
    08:00 +18°C° 0 mm 3 m/s 764 mmHg 78%
    09:00 +20°C° 0 mm 3 m/s 764 mmHg 69%
    10:00 +22°C° 0 mm 3 m/s 764 mmHg 60%
    11:00 +24°C° 0 mm 3 m/s 763 mmHg 57%
    12:00 +25°C° 0 mm 3 m/s 762 mmHg 53%
    13:00 +26°C° 0 mm 3 m/s 762 mmHg 50%
    14:00 +25°C° 0 mm 3 m/s 761 mmHg 56%
    15:00 +24°C° 0 mm 3 m/s 761 mmHg 61%
    16:00 +22°C° 0 mm 3 m/s 761 mmHg 66%
    17:00 +21°C° 0 mm 3 m/s 761 mmHg 73%
    18:00 +19°C° 0 mm 3 m/s 762 mmHg 79%
    19:00 +18°C° 0 mm 2 m/s 762 mmHg 86%
    20:00 +18°C° 0 mm 2 m/s 762 mmHg 87%
    21:00 +17°C° 0 mm 2 m/s 763 mmHg 89%
    22:00 +17°C° 0 mm 2 m/s 763 mmHg 90%
    23:00 +16°C° 0 mm 2 m/s 762 mmHg 90%

    25 Maio, Sábado

    Tempo Temperatura Precipitação Vento Pressão Humidade
    00:00 +16°C° 0 mm 2 m/s 762 mmHg 91%
    01:00 +16°C° 0 mm 2 m/s 762 mmHg 91%
    02:00 +15°C° 0 mm 2 m/s 762 mmHg 90%
    03:00 +15°C° 0 mm 2 m/s 762 mmHg 88%
    04:00 +15°C° 0 mm 2 m/s 761 mmHg 87%
    05:00 +15°C° 0 mm 2 m/s 762 mmHg 86%
    06:00 +15°C° 0 mm 2 m/s 762 mmHg 85%
    07:00 +15°C° 0 mm 2 m/s 762 mmHg 84%
    08:00 +18°C° 0 mm 2 m/s 762 mmHg 74%
    09:00 +22°C° 0 mm 1 m/s 762 mmHg 64%
    10:00 +24°C° 0 mm 1 m/s 762 mmHg 54%
    11:00 +25°C° 0 mm 1 m/s 761 mmHg 51%
    12:00 +26°C° 0 mm 1 m/s 761 mmHg 48%
    13:00 +27°C° 0 mm 1 m/s 760 mmHg 44%
    14:00 +26°C° 0 mm 1 m/s 760 mmHg 50%
    15:00 +25°C° 0 mm 2 m/s 760 mmHg 56%
    16:00 +24°C° 0 mm 2 m/s 759 mmHg 61%
    17:00 +21°C° 0 mm 2 m/s 760 mmHg 71%
    18:00 +20°C° 0 mm 1 m/s 760 mmHg 80%
    19:00 +19°C° 0 mm 1 m/s 761 mmHg 90%
    20:00 +19°C° 0.1 mm 1 m/s 761 mmHg 90%
    21:00 +18°C° 0.1 mm 1 m/s 761 mmHg 91%
    22:00 +16°C° 0.1 mm 0 m/s 761 mmHg 91%
    23:00 +18°C° 0 mm 1 m/s 761 mmHg 92%

    26 Maio, Domingo

    Tempo Temperatura Precipitação Vento Pressão Humidade
    00:00 +18°C° 0 mm 1 m/s 760 mmHg 92%
    01:00 +16°C° 0 mm 1 m/s 760 mmHg 93%
    02:00 +16°C° 0 mm 2 m/s 760 mmHg 93%
    03:00 +16°C° 0 mm 2 m/s 760 mmHg 93%
    04:00 +15°C° 0 mm 2 m/s 760 mmHg 93%
    05:00 +15°C° 0 mm 2 m/s 760 mmHg 92%
    06:00 +15°C° 0 mm 2 m/s 760 mmHg 90%
    07:00 +15°C° 0 mm 2 m/s 761 mmHg 89%
    08:00 +18°C° 0 mm 2 m/s 760 mmHg 77%
    09:00 +20°C° 0 mm 2 m/s 760 mmHg 65%
    10:00 +24°C° 0 mm 2 m/s 760 mmHg 52%
    11:00 +25°C° 0 mm 2 m/s 759 mmHg 48%
    12:00 +25°C° 0 mm 3 m/s 758 mmHg 44%
    13:00 +26°C° 0 mm 3 m/s 757 mmHg 40%
    14:00 +26°C° 0 mm 3 m/s 757 mmHg 45%
    15:00 +25°C° 0 mm 3 m/s 757 mmHg 50%
    16:00 +24°C° 0 mm 3 m/s 757 mmHg 54%
    17:00 +22°C° 0 mm 3 m/s 757 mmHg 59%
    18:00 +20°C° 0 mm 3 m/s 757 mmHg 64%
    19:00 +19°C° 0 mm 3 m/s 758 mmHg 68%
    20:00 +18°C° 0 mm 3 m/s 758 mmHg 66%
    21:00 +18°C° 0 mm 3 m/s 758 mmHg 63%
    22:00 +17°C° 0 mm 2 m/s 758 mmHg 61%
    23:00 +17°C° 0 mm 2 m/s 758 mmHg 59%
    Mostrar mais